SHIELDS 1

Satellite information

Favourite Embed

Satellite Type and Status

PAYLOADIN ORBIT

Key statistics

Satellite SHIELDS 1 at a glance.

Uptime

2517

Days in orbit

Revolutions

≈ 15.8

Per day

Orbit

LEO

Low Earth Orbit

Inclination

85.0

Latest

Satellite identification and parameters

Extended collection of information and parameters for SHIELDS 1.

Object identification

Identified? True

Debris? False

Object name: SHIELDS 1

International designator: 2018-104B

Object number (NORAD): 43850

Object ID (CCSDS): 43850

Country: UNITED STATES OF AMERICA (US)

Current information (Y/N): Y

RCS size: SMALL

Orbital parameters

Period: 91.383 minutes

Inclination: 85.0054 deg

SMA: 6720.534 km

Apoapsis: 342.864 km

Periapsis: 341.934 km

RAAN: 291.5163 deg

Eccentricy: 0.00006922

Argument of periapsis: 91.3827 deg

Mean anomaly: 268.7523 deg

Mean motion: 15.75785459 rev/day

Mean motion (dot): 0.00079239 rev/day2

B* drag term: 0.0005132088 1/REarth

Two-line elements (TLE)

Creation date: Nov. 4, 2025, 5:59 p.m.

Reference frame: TEME

Reference center: EARTH

Epoch: Nov. 4, 2025, 10:15 a.m. UTC

TLE line 0: 0 SHIELDS 1

TLE line 1: 1 43850U 18104B 25308.42751460 .00079239 00000-0 51321-3 0 9996

TLE line 2: 2 43850 85.0054 291.5163 0000692 91.3827 268.7523 15.75785459384608

Live tracking on map

Real-time ground track for satellite SHIELDS 1.

In-orbit conjunctions

There are no conjunctions computed for SHIELDS 1, at the moment. Check back to stay up to date, as we update our databases every day.

Go to all conjunctions

Associated space launch

NASA's signed a Venture Class Launch Services contract with Rocket Lab to launch 10 cubesats as a part of CubeSat Launch Initiative Educational Launch of Nanosatellites (ELaNa) program. Cubesats are: ALBus / CeREs / CHOMPTT / Da Vinci / ISX / NMTSat / RSat-P / Shields 1 / STF 1 / CubeSail A / CubeSail B /TOMSat EagleScout / TOMSat R3 / SHFT 1

SHIELDS 1 was lifted into orbit during the mission ‘Electron | This One's For Pickering (VCLS ELaNa XIX)’, on board a Electron space rocket.

The launch took place on Dec. 16, 2018, 6:33 a.m. from Rocket Lab Launch Complex 1A.

For more information about the launch, click the button.

Launch to space Electron | This One's For Pickering (VCLS ELaNa XIX)
Electron | This One's For Pickering (VCLS ELaNa XIX)

Agency: N/A

Status: Launch Successful

Launch date: Dec. 16, 2018, 6:33 a.m. UTC

Rocket: Electron

Launch pad: Rocket Lab Launch Complex 1A

Location: Rocket Lab Launch Complex 1, Mahia Peninsula, New Zealand

...

Latest news about this satellite

There are no fresh news available about this satellite. Check back as we update our databases every day.


Newsletter sign-up

Weekly statistics, charts and insights to help you stay on top of the space industry.